QPF
0.09 0.14 0.11 0.13 0.14 0.07 0.08 0.15 0.17 0.20 0.17 0.12 0.09 0.07 0.05 0.04 0.03 0.02 0.01 0.00 0.00 0.00 0.00 0.00 0.00 0.00 0.00 0.00 0.00 0.00 0.00 0.00 0.00 0.00 0.00 0.00 0.00 0.00 0.00 0.00 0.00 0.00 0.00
0.07 0.15 0.24 0.37 0.35 0.23 0.10 0.11 0.16 0.20 0.17 0.09 0.03 0.01 0.00 0.00 0.00 0.00 0.00 0.00 0.00 0.00 0.00 0.00 0.00 0.00 0.00 0.00 0.00 0.00 0.00 0.00 0.00 0.00 0.00 0.00 0.00 0.00 0.00 0.00 0.00 0.00 0.00
0.02 0.05 0.04 0.06 0.05 0.05 0.06 0.04 0.01 0.05 0.11 0.09 0.06 0.03 0.02 0.00 0.00 0.00 0.00 0.00 0.00 0.00 0.00 0.00 0.00 0.00 0.00 0.00 0.00 0.00 0.00 0.00 0.00 0.00 0.00 0.00 0.00 0.00 0.00 0.00 0.00 0.00 0.00
0.00 0.00 0.00 0.00 0.00 0.00 0.00 0.01 0.00 0.00 0.00 0.00 0.00 0.00 0.01 0.01 0.00 0.01 0.01 0.00 0.00 0.00 0.00 0.00 0.00 0.00 0.00 0.00 0.00 0.00 0.00 0.00 0.00 0.00 0.00 0.00 0.00 0.00 0.00 0.00 0.00 0.00 0.00
0.00 0.00 0.00 0.00 0.01 0.00 0.00 0.00 0.00 0.00 0.00 0.00 0.00 0.00 0.00 0.00 0.02 0.02 0.03 0.04 0.02 0.00 0.00 0.00 0.00 0.00 0.00 0.00 0.00 0.00 0.00 0.00 0.00 0.00 0.00 0.00 0.00 0.00 0.00 0.00 0.00 0.00 0.00
0.00 0.00 0.00 0.00 0.00 0.00 0.00 0.00 0.00 0.00 0.00 0.00 0.00 0.00 0.00 0.00 0.00 0.01 0.01 0.04 0.05 0.01 0.00 0.00 0.00 0.00 0.00 0.00 0.00 0.00 0.00 0.00 0.00 0.00 0.00 0.00 0.00 0.00 0.00 0.00 0.00 0.00 0.00
0.00 0.00 0.00 0.00 0.00 0.00 0.00 0.00 0.00 0.00 0.00 0.00 0.01 0.03 0.01 0.00 0.00 0.00 0.00 0.00 0.02 0.05 0.04 0.02 0.00 0.00 0.00 0.00 0.00 0.00 0.00 0.00 0.00 0.00 0.00 0.00 0.00 0.00 0.00 0.00 0.00 0.00 0.00
0.00 0.00 0.00 0.00 0.00 0.00 0.00 0.00 0.00 0.00 0.00 0.00 0.01 0.03 0.03 0.01 0.01 0.00 0.00 0.00 0.00 0.01 0.03 0.04 0.02 0.00 0.00 0.00 0.00 0.00 0.00 0.00 0.00 0.00 0.00 0.00 0.00 0.00 0.00 0.00 0.00 0.00 0.00
0.00 0.00 0.00 0.00 0.00 0.00 0.00 0.00 0.00 0.01 0.00 0.00 0.01 0.02 0.07 0.05 0.01 0.00 0.00 0.00 0.00 0.00 0.00 0.00 0.02 0.02 0.00 0.00 0.00 0.00 0.00 0.00 0.00 0.00 0.00 0.00 0.00 0.00 0.00 0.00 0.00 0.00 0.00
0.00 0.00 0.00 0.00 0.00 0.00 0.00 0.00 0.00 0.00 0.01 0.03 0.09 0.11 0.18 0.20 0.09 0.00 0.00 0.00 0.00 0.00 0.00 0.00 0.00 0.00 0.00 0.00 0.00 0.00 0.00 0.00 0.00 0.00 0.00 0.00 0.00 0.00 0.00 0.00 0.00 0.00 0.00
0.00 0.00 0.00 0.00 0.00 0.00 0.00 0.01 0.02 0.04 0.13 0.16 0.19 0.25 0.20 0.10 0.06 0.00 0.00 0.00 0.00 0.00 0.00 0.00 0.00 0.00 0.00 0.00 0.00 0.00 0.00 0.00 0.00 0.00 0.00 0.00 0.00 0.00 0.00 0.00 0.00 0.00 0.00
0.00 0.00 0.01 0.00 0.00 0.00 0.00 0.00 0.01 0.02 0.07 0.16 0.12 0.09 0.04 0.01 0.00 0.00 0.00 0.00 0.00 0.00 0.00 0.00 0.00 0.00 0.00 0.00 0.00 0.00 0.00 0.00 0.00 0.00 0.00 0.00 0.00 0.00 0.00 0.00 0.00 0.00 0.00
0.00 0.00 0.02 0.01 0.00 0.00 0.00 0.00 0.00 0.00 0.00 0.02 0.02 0.01 0.00 0.00 0.00 0.00 0.00 0.00 0.00 0.00 0.00 0.00 0.00 0.00 0.00 0.00 0.00 0.00 0.00 0.00 0.00 0.00 0.00 0.00 0.00 0.00 0.00 0.00 0.00 0.00 0.00
0.03 0.02 0.06 0.10 0.04 0.00 0.00 0.00 0.00 0.00 0.00 0.00 0.01 0.00 0.00 0.00 0.00 0.00 0.00 0.00 0.00 0.00 0.00 0.00 0.00 0.00 0.00 0.00 0.00 0.00 0.00 0.00 0.00 0.00 0.00 0.00 0.00 0.00 0.00 0.00 0.00 0.00 0.00
0.01 0.02 0.03 0.06 0.06 0.02 0.00 0.00 0.00 0.00 0.00 0.00 0.00 0.00 0.00 0.00 0.00 0.00 0.00 0.00 0.00 0.01 0.01 0.01 0.00 0.00 0.00 0.00 0.00 0.00 0.00 0.00 0.00 0.00 0.00 0.00 0.00 0.00 0.00 0.00 0.00 0.00 0.00
0.00 0.00 0.02 0.04 0.04 0.03 0.01 0.00 0.00 0.00 0.00 0.00 0.01 0.01 0.00 0.00 0.00 0.00 0.00 0.00 0.00 0.02 0.03 0.02 0.01 0.00 0.00 0.00 0.00 0.00 0.00 0.00 0.00 0.00 0.00 0.00 0.00 0.00 0.00 0.00 0.00 0.00 0.00
0.00 0.00 0.00 0.00 0.01 0.02 0.00 0.00 0.00 0.01 0.00 0.00 0.00 0.00 0.00 0.00 0.00 0.00 0.00 0.01 0.01 0.02 0.04 0.01 0.01 0.00 0.00 0.00 0.00 0.00 0.00 0.00 0.00 0.00 0.00 0.00 0.00 0.00 0.00 0.00 0.00 0.00 0.00
0.00 0.00 0.00 0.00 0.00 0.00 0.00 0.01 0.01 0.01 0.01 0.00 0.00 0.00 0.00 0.00 0.00 0.00 0.00 0.04 0.06 0.05 0.03 0.01 0.01 0.00 0.00 0.00 0.00 0.00 0.00 0.00 0.00 0.00 0.00 0.00 0.00 0.00 0.00 0.00 0.00 0.00 0.00
0.00 0.00 0.00 0.00 0.00 0.00 0.01 0.02 0.04 0.02 0.01 0.01 0.01 0.02 0.00 0.00 0.00 0.00 0.02 0.04 0.01 0.01 0.01 0.01 0.00 0.00 0.00 0.00 0.00 0.00 0.00 0.00 0.00 0.00 0.00 0.00 0.00 0.00 0.00 0.00 0.00 0.00 0.00
0.00 0.00 0.00 0.00 0.00 0.00 0.00 0.01 0.02 0.04 0.04 0.03 0.01 0.01 0.00 0.01 0.02 0.02 0.03 0.03 0.02 0.01 0.01 0.00 0.00 0.00 0.00 0.00 0.00 0.00 0.00 0.00 0.00 0.00 0.00 0.00 0.00 0.00 0.00 0.00 0.00 0.00 0.00
0.00 0.00 0.00 0.00 0.00 0.00 0.00 0.01 0.01 0.02 0.03 0.04 0.04 0.04 0.01 0.01 0.00 0.01 0.01 0.03 0.03 0.03 0.01 0.00 0.00 0.00 0.00 0.00 0.00 0.00 0.00 0.00 0.00 0.00 0.00 0.00 0.00 0.00 0.00 0.00 0.00 0.00 0.00
0.00 0.00 0.00 0.00 0.00 0.00 0.00 0.01 0.01 0.02 0.02 0.03 0.04 0.05 0.06 0.05 0.02 0.02 0.02 0.02 0.02 0.02 0.01 0.00 0.00 0.00 0.00 0.00 0.00 0.00 0.00 0.00 0.00 0.00 0.00 0.00 0.01 0.01 0.01 0.01 0.01 0.01 0.01
0.00 0.00 0.00 0.00 0.00 0.00 0.00 0.00 0.01 0.01 0.02 0.03 0.04 0.05 0.06 0.07 0.05 0.04 0.03 0.02 0.01 0.01 0.01 0.01 0.01 0.02 0.01 0.01 0.01 0.02 0.01 0.01 0.00 0.01 0.02 0.01 0.01 0.01 0.01 0.01 0.01 0.01 0.01
0.00 0.00 0.00 0.00 0.00 0.00 0.00 0.00 0.01 0.01 0.02 0.03 0.04 0.05 0.06 0.07 0.07 0.07 0.06 0.05 0.05 0.05 0.05 0.05 0.03 0.03 0.02 0.02 0.01 0.02 0.01 0.01 0.01 0.02 0.02 0.03 0.02 0.01 0.01 0.01 0.01 0.01 0.01
0.00 0.00 0.00 0.00 0.00 0.00 0.00 0.01 0.01 0.01 0.02 0.03 0.04 0.05 0.05 0.06 0.06 0.06 0.05 0.05 0.05 0.05 0.05 0.05 0.04 0.04 0.03 0.03 0.04 0.03 0.02 0.01 0.01 0.03 0.04 0.04 0.04 0.04 0.04 0.02 0.01 0.01 0.01
0.00 0.00 0.01 0.01 0.01 0.01 0.01 0.01 0.01 0.01 0.01 0.01 0.02 0.02 0.02 0.02 0.03 0.03 0.02 0.02 0.02 0.03 0.03 0.02 0.01 0.01 0.02 0.02 0.01 0.01 0.02 0.02 0.01 0.01 0.02 0.04 0.03 0.03 0.03 0.03 0.02 0.01 0.01
MSLP
1007.27 1007.82 1008.36 1009.15 1008.85 1009.77 1010.79 1011.59 1012.32 1012.50 1013.00 1013.64 1014.30 1014.85 1015.26 1015.72 1016.00 1016.48 1017.04 1017.68 1017.84 1017.57 1017.08 1016.94 1016.81 1016.45 1016.56 1017.05 1017.46 1017.61 1018.24 1018.99 1019.78 1021.29 1022.84 1024.04 1024.88 1025.94 1026.97 1027.47 1028.11 1027.71 1028.97
1006.64 1007.08 1007.73 1008.79 1009.46 1010.11 1010.85 1010.82 1011.73 1012.33 1012.83 1013.02 1013.65 1014.48 1015.10 1015.49 1015.60 1016.11 1016.55 1017.13 1017.43 1017.16 1016.78 1016.92 1016.39 1016.59 1016.68 1017.09 1017.26 1017.63 1018.08 1018.64 1019.57 1021.06 1022.59 1023.67 1024.20 1025.24 1025.60 1027.21 1027.24 1026.44 1028.16
1005.75 1006.54 1007.10 1007.68 1007.87 1008.64 1009.64 1010.14 1011.03 1011.75 1012.53 1013.15 1013.51 1014.24 1014.48 1015.04 1015.42 1015.89 1016.41 1016.62 1016.64 1016.57 1016.78 1016.90 1016.66 1016.73 1016.84 1016.99 1017.41 1017.90 1018.28 1018.74 1019.60 1021.18 1022.62 1023.37 1023.74 1024.94 1025.33 1026.16 1026.76 1026.80 1028.06
1006.12 1006.21 1006.49 1007.10 1007.55 1007.45 1008.96 1009.32 1008.96 1010.19 1011.89 1012.91 1013.20 1013.84 1014.03 1014.74 1015.30 1015.70 1016.07 1016.16 1016.34 1016.63 1016.83 1016.81 1016.79 1016.85 1017.23 1017.42 1017.70 1018.18 1018.88 1019.20 1019.67 1020.83 1021.90 1022.76 1023.43 1024.64 1025.06 1025.57 1026.49 1026.95 1028.04
1005.92 1005.87 1005.96 1006.32 1006.92 1007.05 1007.94 1008.49 1009.27 1009.84 1010.58 1011.78 1012.64 1013.04 1013.77 1014.29 1014.72 1015.54 1016.19 1016.13 1016.56 1016.75 1017.04 1016.72 1016.97 1017.67 1018.02 1018.42 1018.16 1018.51 1019.13 1019.54 1019.85 1020.29 1021.08 1022.26 1023.08 1024.28 1024.45 1024.81 1025.65 1026.40 1027.49
1005.40 1005.36 1005.38 1005.59 1005.99 1006.78 1007.36 1007.84 1008.50 1009.45 1010.13 1011.10 1012.06 1012.60 1013.27 1013.61 1014.32 1015.14 1015.79 1016.33 1016.46 1016.73 1017.13 1016.92 1017.43 1018.33 1018.63 1019.26 1019.12 1019.58 1019.34 1019.61 1019.69 1020.04 1021.34 1021.59 1022.29 1023.53 1023.75 1024.06 1024.87 1025.81 1026.80
1004.83 1004.72 1004.79 1004.90 1005.28 1006.20 1006.85 1007.49 1008.02 1008.66 1009.39 1010.40 1011.54 1012.54 1013.13 1013.57 1014.40 1014.98 1015.63 1016.38 1017.04 1017.34 1017.63 1017.23 1017.85 1018.56 1019.40 1019.78 1019.99 1020.40 1020.48 1020.40 1020.19 1019.99 1020.88 1021.40 1022.03 1022.88 1023.12 1023.64 1024.45 1025.37 1025.81
1004.36 1004.37 1004.68 1005.04 1005.36 1005.89 1006.63 1007.19 1007.71 1008.35 1009.10 1009.94 1011.20 1012.13 1012.81 1013.25 1014.14 1015.10 1015.80 1016.41 1017.12 1017.74 1017.77 1018.38 1018.79 1019.07 1019.78 1020.37 1020.74 1020.85 1020.86 1021.07 1021.27 1021.02 1021.00 1022.31 1021.91 1022.61 1022.94 1023.54 1024.22 1025.14 1025.93
1004.18 1004.24 1004.89 1005.50 1005.81 1006.10 1006.62 1007.29 1007.77 1008.23 1009.10 1009.99 1010.88 1011.89 1012.64 1013.57 1014.28 1015.13 1015.59 1016.13 1016.87 1017.71 1018.16 1018.71 1019.15 1019.88 1020.11 1020.77 1021.35 1021.35 1021.89 1022.14 1022.15 1022.18 1022.73 1023.29 1023.43 1023.84 1023.79 1023.89 1024.33 1025.00 1026.07
1005.25 1005.39 1005.72 1005.85 1006.16 1006.57 1007.13 1007.72 1008.24 1008.74 1009.51 1010.40 1011.32 1011.88 1012.52 1013.31 1014.13 1014.94 1015.22 1015.68 1016.27 1017.04 1017.99 1018.66 1019.17 1019.87 1020.43 1021.05 1021.10 1021.42 1022.19 1022.29 1022.62 1023.16 1023.79 1024.20 1024.14 1024.74 1024.72 1024.65 1024.80 1025.21 1025.90
1006.40 1005.86 1006.09 1006.28 1006.59 1007.23 1007.70 1008.33 1008.82 1009.43 1010.13 1010.84 1011.56 1012.12 1012.41 1012.76 1013.93 1014.61 1015.21 1015.18 1015.71 1016.46 1017.29 1018.08 1019.21 1020.07 1020.50 1020.96 1021.11 1021.27 1021.60 1022.34 1023.04 1023.62 1024.17 1024.29 1024.47 1024.90 1025.04 1025.35 1025.26 1025.51 1025.85
1006.81 1006.76 1006.53 1006.69 1007.03 1007.56 1008.03 1008.77 1009.31 1009.77 1010.38 1011.01 1011.39 1011.88 1012.32 1013.01 1013.66 1014.49 1014.99 1015.02 1015.49 1015.99 1016.81 1017.66 1018.65 1019.87 1020.41 1020.92 1021.31 1021.27 1021.71 1022.45 1023.02 1023.47 1023.80 1023.86 1024.40 1024.94 1025.32 1025.70 1025.80 1026.01 1026.70
1006.99 1007.13 1007.19 1007.24 1007.50 1007.88 1008.43 1008.90 1009.49 1010.02 1010.48 1010.98 1011.39 1011.71 1012.26 1012.78 1013.45 1014.20 1014.82 1015.28 1015.89 1016.05 1016.99 1017.83 1018.79 1019.78 1020.50 1021.08 1021.53 1021.79 1022.06 1022.54 1022.95 1023.23 1023.27 1023.43 1023.93 1024.42 1025.00 1025.76 1026.21 1026.40 1026.93
1007.00 1007.05 1007.39 1007.67 1007.99 1008.40 1008.71 1009.13 1009.56 1009.99 1010.36 1010.80 1011.16 1011.47 1011.85 1012.47 1012.99 1013.94 1014.84 1015.60 1016.15 1016.57 1017.39 1018.12 1018.94 1019.71 1020.42 1021.01 1021.75 1022.28 1022.36 1022.53 1022.90 1022.98 1022.98 1023.18 1023.60 1023.93 1024.44 1025.12 1025.60 1025.98 1026.33
1006.58 1006.96 1007.31 1007.67 1008.28 1008.76 1009.16 1009.40 1009.67 1009.92 1010.15 1010.52 1010.85 1011.14 1011.53 1012.14 1012.70 1013.46 1014.25 1015.05 1015.91 1016.61 1017.58 1018.43 1019.16 1019.73 1020.29 1020.81 1021.47 1021.95 1022.28 1022.45 1022.57 1022.59 1022.60 1022.83 1023.21 1023.54 1023.95 1024.40 1024.87 1025.17 1025.45
1005.82 1006.66 1007.19 1007.67 1008.16 1008.71 1009.18 1009.64 1009.81 1010.05 1010.32 1010.59 1010.91 1011.14 1011.66 1012.22 1012.92 1013.59 1014.25 1015.00 1015.75 1016.57 1017.41 1018.01 1018.59 1019.09 1019.53 1020.11 1020.62 1021.11 1021.60 1021.80 1022.00 1022.20 1022.37 1022.50 1022.78 1023.21 1023.62 1023.98 1024.35 1024.49 1024.71
1005.63 1006.40 1007.05 1007.56 1008.05 1008.51 1008.92 1009.42 1009.75 1010.27 1010.46 1010.70 1010.87 1011.22 1011.69 1012.15 1012.80 1013.43 1014.14 1014.92 1015.58 1016.41 1016.76 1017.32 1017.77 1018.31 1018.75 1019.15 1019.53 1019.96 1020.36 1020.85 1021.33 1021.68 1022.04 1022.28 1022.55 1022.89 1023.29 1023.51 1023.74 1024.02 1024.25
1006.61 1006.96 1007.16 1007.48 1007.91 1008.38 1008.79 1009.11 1009.48 1009.85 1010.24 1010.61 1010.99 1011.29 1011.68 1012.15 1012.71 1013.29 1014.00 1014.85 1015.55 1015.95 1016.16 1016.54 1017.00 1017.47 1017.94 1018.32 1018.71 1019.14 1019.66 1020.17 1020.71 1021.23 1021.61 1021.93 1022.32 1022.59 1022.80 1022.99 1023.13 1023.34 1023.54
1006.70 1006.94 1007.40 1007.54 1007.98 1008.30 1008.75 1008.99 1009.24 1009.51 1009.80 1010.20 1010.77 1011.37 1011.67 1012.12 1012.63 1013.17 1013.73 1014.14 1014.61 1015.12 1015.57 1015.94 1016.36 1016.77 1017.16 1017.62 1018.08 1018.55 1019.06 1019.54 1020.09 1020.67 1021.12 1021.41 1021.70 1021.99 1022.08 1022.22 1022.43 1022.60 1022.79
1007.18 1007.41 1007.61 1007.80 1008.12 1008.38 1008.69 1008.85 1009.05 1009.31 1009.52 1009.81 1010.20 1010.65 1011.27 1012.05 1012.44 1012.82 1013.28 1013.70 1014.09 1014.58 1015.04 1015.38 1015.73 1016.18 1016.55 1017.01 1017.51 1018.02 1018.52 1019.01 1019.42 1019.88 1020.30 1020.68 1020.96 1021.24 1021.31 1021.44 1021.61 1021.75 1021.85
1007.38 1007.60 1007.75 1007.92 1008.17 1008.38 1008.58 1008.68 1008.77 1009.00 1009.19 1009.47 1009.75 1010.14 1010.64 1011.17 1011.59 1012.14 1012.68 1013.18 1013.55 1014.08 1014.61 1014.98 1015.15 1015.50 1016.01 1016.41 1016.80 1017.32 1017.81 1018.16 1018.54 1018.91 1019.28 1019.69 1020.03 1020.26 1020.49 1020.67 1020.86 1021.01 1021.15
1007.57 1007.65 1007.83 1008.00 1008.20 1008.41 1008.52 1008.59 1008.68 1008.89 1009.07 1009.32 1009.62 1009.95 1010.40 1010.94 1011.25 1011.66 1012.21 1012.73 1013.23 1013.70 1014.14 1014.49 1014.64 1014.97 1015.28 1015.65 1016.06 1016.56 1016.99 1017.36 1017.70 1018.06 1018.40 1018.72 1019.02 1019.28 1019.51 1019.73 1019.95 1020.11 1020.29
1007.69 1007.81 1008.01 1008.18 1008.32 1008.54 1008.53 1008.63 1008.75 1008.97 1009.21 1009.44 1009.72 1010.03 1010.40 1010.73 1011.05 1011.44 1011.97 1012.51 1012.97 1013.32 1013.61 1013.93 1014.34 1014.62 1014.82 1015.24 1015.58 1015.91 1016.23 1016.48 1016.76 1017.19 1017.55 1017.83 1018.08 1018.30 1018.52 1018.68 1018.88 1019.11 1019.28
1007.98 1008.13 1008.33 1008.51 1008.71 1008.80 1008.93 1009.04 1009.23 1009.43 1009.66 1009.86 1010.04 1010.26 1010.57 1010.85 1011.13 1011.49 1011.89 1012.30 1012.67 1013.02 1013.37 1013.73 1014.06 1014.42 1014.70 1014.98 1015.25 1015.52 1015.77 1016.00 1016.25 1016.48 1016.79 1017.00 1017.16 1017.35 1017.55 1017.69 1017.84 1018.04 1018.31
1008.58 1008.79 1008.99 1009.21 1009.33 1009.45 1009.53 1009.67 1009.90 1010.13 1010.32 1010.49 1010.72 1010.92 1011.14 1011.39 1011.68 1012.01 1012.33 1012.62 1012.87 1013.13 1013.41 1013.68 1014.03 1014.28 1014.48 1014.70 1014.87 1015.10 1015.25 1015.52 1015.79 1015.98 1016.15 1016.27 1016.42 1016.53 1016.62 1016.77 1016.98 1017.20 1017.45
1009.36 1009.60 1009.80 1009.96 1010.09 1010.23 1010.32 1010.52 1010.78 1011.04 1011.31 1011.56 1011.73 1011.89 1012.07 1012.28 1012.59 1012.88 1013.19 1013.37 1013.48 1013.71 1014.09 1014.44 1014.86 1015.05 1015.12 1015.37 1015.68 1015.73 1015.64 1015.62 1015.52 1015.64 1015.82 1015.86 1015.88 1015.93 1016.03 1016.03 1016.18 1016.37 1016.57
Thickness
5532 5520 5509 5498 5499 5482 5475 5467 5461 5461 5456 5450 5445 5440 5438 5437 5440 5440 5439 5435 5436 5442 5449 5454 5459 5467 5470 5468 5466 5467 5464 5459 5454 5441 5427 5417 5409 5400 5393 5392 5388 5392 5383
5519 5510 5499 5486 5480 5471 5464 5465 5459 5452 5450 5450 5446 5440 5438 5437 5440 5440 5438 5434 5432 5438 5445 5447 5456 5458 5461 5460 5461 5459 5457 5453 5447 5433 5422 5413 5410 5401 5400 5385 5385 5392 5380
5508 5500 5492 5484 5480 5471 5465 5463 5457 5452 5445 5440 5439 5437 5436 5435 5435 5433 5431 5431 5434 5439 5439 5441 5447 5450 5454 5455 5452 5449 5449 5446 5439 5425 5413 5409 5407 5397 5395 5385 5381 5382 5372
5492 5490 5486 5479 5474 5474 5460 5462 5466 5457 5444 5437 5437 5434 5436 5432 5428 5427 5427 5430 5432 5432 5433 5436 5440 5443 5442 5444 5443 5440 5436 5434 5431 5422 5413 5408 5401 5391 5388 5384 5377 5374 5365
5483 5483 5482 5478 5472 5470 5463 5460 5455 5452 5447 5439 5435 5434 5431 5428 5428 5423 5420 5423 5422 5424 5425 5429 5429 5427 5424 5424 5432 5431 5426 5424 5423 5420 5414 5404 5397 5385 5385 5383 5376 5371 5361
5480 5480 5481 5477 5473 5464 5461 5459 5455 5448 5444 5438 5432 5431 5426 5427 5423 5418 5414 5413 5415 5416 5413 5420 5417 5411 5410 5408 5413 5408 5415 5417 5417 5415 5402 5401 5395 5386 5384 5382 5375 5368 5359
5478 5479 5478 5477 5474 5465 5458 5453 5450 5448 5444 5438 5430 5424 5421 5419 5415 5413 5408 5404 5401 5400 5401 5407 5404 5401 5397 5397 5396 5393 5395 5399 5403 5408 5401 5397 5390 5383 5382 5377 5371 5364 5362
5475 5475 5472 5470 5467 5462 5455 5449 5445 5440 5437 5432 5424 5419 5416 5416 5409 5405 5401 5398 5394 5390 5393 5391 5389 5388 5386 5384 5383 5384 5387 5388 5388 5392 5392 5379 5382 5377 5374 5369 5365 5359 5354
5472 5471 5464 5458 5454 5452 5447 5439 5434 5432 5426 5421 5417 5412 5410 5406 5403 5399 5398 5396 5391 5383 5380 5378 5376 5372 5372 5370 5368 5371 5368 5370 5374 5375 5371 5366 5366 5364 5363 5360 5357 5354 5347
5457 5455 5450 5447 5443 5438 5432 5426 5420 5417 5413 5409 5404 5404 5403 5399 5396 5393 5394 5392 5387 5382 5375 5371 5368 5366 5363 5360 5363 5363 5359 5361 5361 5358 5354 5351 5351 5349 5350 5348 5346 5346 5342
5439 5444 5440 5436 5431 5423 5418 5413 5409 5406 5402 5400 5397 5396 5396 5396 5389 5386 5384 5387 5384 5379 5374 5369 5361 5356 5354 5352 5354 5355 5355 5351 5348 5345 5342 5341 5341 5337 5337 5334 5335 5334 5336
5424 5426 5429 5424 5418 5414 5409 5404 5401 5399 5397 5393 5392 5391 5391 5388 5385 5380 5377 5378 5377 5375 5370 5365 5358 5349 5345 5343 5342 5347 5345 5341 5339 5337 5335 5335 5332 5328 5325 5323 5322 5321 5320
5418 5413 5412 5409 5408 5404 5401 5399 5396 5393 5392 5390 5389 5388 5386 5383 5380 5375 5371 5369 5365 5366 5359 5353 5346 5340 5337 5334 5333 5333 5333 5332 5330 5329 5329 5329 5326 5322 5318 5313 5310 5309 5306
5411 5408 5403 5399 5398 5396 5395 5394 5392 5390 5388 5387 5386 5386 5384 5382 5377 5370 5365 5360 5356 5353 5346 5341 5335 5331 5329 5327 5322 5320 5321 5321 5320 5320 5321 5321 5317 5315 5312 5306 5304 5301 5300
5413 5408 5403 5398 5392 5390 5387 5386 5385 5385 5385 5384 5383 5382 5381 5377 5373 5368 5363 5357 5351 5346 5338 5331 5325 5322 5320 5318 5314 5312 5311 5312 5312 5313 5314 5313 5310 5308 5305 5301 5298 5296 5295
5416 5406 5399 5394 5389 5383 5382 5379 5378 5377 5377 5376 5375 5375 5372 5369 5364 5360 5356 5350 5345 5338 5333 5328 5323 5320 5317 5314 5311 5308 5306 5306 5306 5305 5305 5305 5303 5299 5295 5292 5290 5289 5288
5411 5403 5397 5390 5384 5380 5377 5374 5372 5368 5368 5368 5368 5366 5364 5362 5358 5353 5348 5343 5338 5332 5330 5326 5322 5318 5315 5313 5312 5309 5307 5304 5301 5300 5297 5295 5293 5289 5285 5284 5283 5282 5280
5389 5386 5388 5386 5380 5374 5370 5368 5366 5365 5363 5361 5359 5358 5355 5353 5349 5346 5341 5335 5330 5327 5326 5323 5320 5316 5313 5311 5309 5307 5303 5300 5296 5293 5290 5288 5284 5282 5280 5279 5278 5277 5275
5383 5382 5378 5377 5373 5368 5364 5362 5360 5358 5357 5356 5352 5348 5346 5344 5341 5338 5334 5331 5329 5325 5321 5319 5315 5313 5310 5308 5305 5302 5299 5296 5291 5287 5285 5283 5280 5278 5277 5276 5274 5272 5270
5367 5364 5365 5365 5362 5360 5357 5356 5354 5352 5352 5350 5348 5346 5341 5335 5333 5331 5327 5325 5323 5319 5316 5314 5311 5308 5306 5303 5300 5297 5293 5290 5287 5284 5281 5278 5276 5273 5272 5271 5269 5267 5266
5355 5353 5353 5353 5352 5350 5348 5347 5347 5345 5345 5343 5342 5339 5336 5334 5332 5327 5323 5319 5317 5313 5309 5306 5306 5304 5300 5298 5296 5292 5289 5286 5283 5281 5277 5274 5271 5269 5266 5264 5261 5259 5257
5346 5345 5345 5343 5341 5339 5338 5338 5337 5335 5335 5334 5331 5328 5325 5323 5323 5320 5316 5312 5308 5305 5302 5300 5300 5297 5295 5293 5291 5287 5284 5281 5278 5275 5271 5268 5266 5263 5261 5258 5256 5253 5251
5336 5335 5334 5332 5330 5328 5328 5327 5326 5325 5324 5322 5320 5318 5316 5314 5313 5311 5307 5303 5300 5298 5296 5294 5291 5290 5288 5285 5282 5280 5278 5275 5272 5268 5266 5263 5261 5258 5256 5254 5251 5248 5245
5324 5324 5322 5320 5319 5317 5316 5315 5314 5312 5311 5309 5308 5307 5305 5303 5302 5300 5297 5295 5292 5290 5287 5285 5282 5280 5278 5276 5273 5271 5268 5266 5264 5262 5258 5257 5255 5252 5249 5247 5244 5240 5235
5310 5309 5308 5306 5305 5304 5303 5303 5301 5299 5297 5296 5294 5293 5291 5289 5288 5286 5284 5282 5280 5279 5277 5274 5271 5269 5267 5265 5264 5262 5260 5258 5255 5253 5250 5248 5246 5243 5241 5238 5233 5228 5222
5296 5294 5293 5292 5291 5290 5290 5288 5286 5284 5281 5279 5278 5276 5275 5274 5272 5269 5267 5266 5265 5264 5260 5256 5253 5252 5251 5250 5247 5246 5246 5245 5244 5241 5237 5235 5233 5231 5226 5223 5219 5213 5208